This is the latest recevied weather packets stored in our database for station/object KB5DPX. If no packets are shown the sender has not sent any weather packets the latest 10 day(s).
| Time | Temp. | Humidity | Pressure | Rain* | Wind** | Luminosity | Snow |
|---|---|---|---|---|---|---|---|
| 1777383456 | 10.56° C | 87% | 1003.5 hPa | 0 mm | - | 58 W/m² | - |
| 1777383152 | 10.56° C | 87% | 1003.4 hPa | 0 mm | - | 72 W/m² | - |
| 1777382859 | 10.56° C | 87% | 1003.3 hPa | 0 mm | - | 53 W/m² | - |
| 1777382575 | 10.56° C | 87% | 1003.1 hPa | 0 mm | - | 54 W/m² | - |
| 1777382278 | 11.11° C | 87% | 1002.9 hPa | 0 mm | - | 93 W/m² | - |
| 1777381964 | 11.11° C | 88% | 1002.7 hPa | 0 mm | - | 69 W/m² | - |
| 1777381651 | 11.11° C | 88% | 1002.8 hPa | 0.25 mm | - | 40 W/m² | - |
| 1777381366 | 11.67° C | 87% | 1002.6 hPa | 0.25 mm | - | 42 W/m² | - |
| 1777381065 | 11.67° C | 87% | 1002.5 hPa | 0.25 mm | - | 33 W/m² | - |
| 1777380775 | 12.22° C | 87% | 1002.2 hPa | 0.25 mm | - | 33 W/m² | - |
| 1777380462 | 12.22° C | 86% | 1002 hPa | 0.25 mm | - | 39 W/m² | - |
| 1777380178 | 12.78° C | 86% | 1001.8 hPa | 0.25 mm | - | 37 W/m² | - |
| 1777379879 | 12.78° C | 86% | 1001.7 hPa | 0.25 mm | - | 62 W/m² | - |
| 1777379566 | 12.78° C | 86% | 1001.5 hPa | 0.25 mm | - | 47 W/m² | - |
| 1777379265 | 13.33° C | 86% | 1001.4 hPa | 0.25 mm | - | 30 W/m² | - |
| 1777378970 | 13.33° C | 86% | 1001.3 hPa | 0.25 mm | - | 21 W/m² | - |
| 1777378657 | 13.33° C | 86% | 1001.1 hPa | 0.25 mm | - | 25 W/m² | - |
| 1777378374 | 13.33° C | 87% | 1001 hPa | 0.25 mm | - | 25 W/m² | - |
| 1777378060 | 13.33° C | 87% | 1000.9 hPa | 0 mm | - | 14 W/m² | - |
| 1777377776 | 13.33° C | 86% | 1000.7 hPa | 0 mm | - | 14 W/m² | - |
| 1777377451 | 13.89° C | 85% | 1000.6 hPa | 0 mm | - | 40 W/m² | - |
| 1777377166 | 13.89° C | 85% | 1000.5 hPa | 0 mm | - | 12 W/m² | - |
| 1777376851 | 13.89° C | 84% | 1000.5 hPa | 0 mm | - | 11 W/m² | - |
| 1777376566 | 13.89° C | 83% | 1000.4 hPa | 0 mm | - | 9 W/m² | - |
| 1777376255 | 13.89° C | 82% | 1000.3 hPa | 0 mm | - | 11 W/m² | - |
* Rain latest hour (hover to see other rain measurements)
** Current wind speed in m/s (hover to see current wind gust speed)